User: anonymous   Login
Location: Unspecified
(0.0000°N, 0.0000°E)
Time: 20:49:53
(UTC+00:00)
Language:

STARLINK-31341 - Orbit

View from above orbital plane
View from above orbital plane
View from above satellite
View from above satellite

Ground track
Ground track

The orbit is defined by the following mean orbital elements,

1 59155U          26145.39537594 +.00000000 +00000-0 +40286-4 0 00005
2 59155  42.9996  37.5458 0000762 284.5512  75.5255 15.27585420    08
Epoch (UTC): 25 May 2026 09:29:20
Eccentricity: 0.0000762
inclination: 42.9996°
perigee height: 483 km
apogee height: 484 km
right ascension of ascending node: 37.5458°
argument of perigee: 284.5512°
revolutions per day: 15.27585420
mean anomaly at epoch: 75.5255°

The dashed part of the orbit path shows where the satellite is in the earth's shadow,  

DLR